[[{"header":{"parameterUnit":"m.s-1","parameterCategory":1,"la1":30.2991,"la2":30.254,"lo1":-89.0895,"lo2":-89.0444,"dy":0.0017,"dx":0.0017,"nx":28,"ny":28,"refTime":"2023-11-12T03:00:00:Z","depth":0,"parameterNumber":2,"parameterNumberName":"U-component_of_WINDS"},"data":[0,0,0,0,0,0,0,0,0,0,0,0,0,0,0,0,0,0,0,0,0,0,0,0,0,0,0,0,0,0,0,0,0,0,0,0,0,0,0,0,0,0,0,0,0,0,0,0,0,0,0,0,0,0,0,0,0,0,-4.4104,-4.4105,0,-4.4153,-4.4154,-4.4154,-4.4066,-4.4064,-4.4061,-4.4058,-4.4106,-4.411,-4.4114,0,0,0,0,0,0,0,0,0,0,0,0,0,-4.3932,-4.3936,-4.4104,-4.4105,-4.4106,-4.4153,-4.4154,-4.4155,-4.4067,-4.4063,-4.406,-4.4056,-4.4105,-4.4109,-4.4114,0,0,0,0,0,0,0,0,0,0,0,0,0,-4.3997,-4.3937,-4.4104,-4.4068,-4.4065,-4.4153,-4.4154,-4.4155,-4.4068,-4.4063,-4.4059,-4.4055,-4.4103,-4.4109,-4.4115,-4.424,0,0,-4.4133,-4.4136,0,0,0,0,0,0,0,0,-4.3993,-4.4003,-4.4072,-4.407,-4.4067,-4.4099,-4.4111,-4.4183,-4.4069,-4.4067,-4.4058,-4.4053,-4.4107,-4.4113,-4.4131,-4.4243,-4.4245,-4.4134,-4.4138,-4.414,-4.4142,0,0,0,0,0,0,0,-4.3989,-4.4001,-4.4124,-4.4074,-4.407,-4.4048,-4.4052,-4.4124,-4.4111,-4.4066,-4.406,-4.4067,-4.4105,-4.4126,-4.4132,-4.4245,-4.4134,-4.4139,-4.4143,-4.4145,-4.4462,-4.4466,0,0,0,0,0,0,-4.3989,-4.3997,-4.4122,-4.4125,-4.4019,-4.4055,-4.4059,-4.4093,-4.411,-4.4108,-4.4071,-4.4063,-4.4118,-4.4125,-4.4133,-4.4282,-4.414,-4.4146,-4.4149,-4.4457,-4.4463,-4.4468,0,0,0,0,0,0,-4.3986,-4.4001,-4.412,-4.406,-4.4073,-4.4062,-4.4101,-4.4097,-4.4118,-4.4113,-4.411,-4.4095,-4.4114,-4.4125,-4.4215,-4.4282,-4.4148,-4.4154,-4.4451,-4.4459,-4.4465,-4.458,0,0,0,0,0,0,-4.3981,-4.4001,-4.4049,-4.4061,-4.4077,-4.4202,-4.4105,-4.4101,-4.4128,-4.4119,-4.4135,-4.4134,-4.4112,-4.4206,-4.4221,-4.4288,-4.4159,-4.4445,-4.4455,-4.4463,-4.457,-4.459,-4.4607,0,0,0,0,0,-4.3976,-4.4079,-4.4052,-4.4067,-4.4137,-4.4206,-4.4214,-4.4188,-4.4134,-4.4182,-4.418,-4.4133,-4.4272,-4.4216,-4.4232,-4.4302,-4.4441,-4.4452,-4.4463,-4.4561,-4.4586,-4.4607,0,0,0,0,0,0,-4.4074,-4.408,-4.405,-4.416,-4.4183,-4.4191,-4.4251,-4.4214,-4.4253,-4.4242,-4.4206,-4.4211,-4.4308,-4.4313,-4.4251,-4.4424,-4.4347,-4.4362,-4.4417,-4.444,-4.4459,-4.4456,-4.4164,0,0,0,0,0,-4.4108,-4.4165,-4.4166,-4.4263,-4.4276,-4.4262,-4.4291,-4.4268,-4.4291,-4.43,-4.4303,-4.4326,-4.4375,-4.4407,-4.4452,-4.4569,-4.4572,-4.4625,-4.4644,-4.4659,-4.4673,-4.4735,-4.4759,-4.4503,-4.4503,-4.4503,0,0,-4.418,-4.419,-4.4228,-4.4283,-4.4299,-4.4357,-4.4271,-4.4336,-4.4379,-4.4309,-4.4395,-4.4398,-4.4421,-4.4526,-4.4572,-4.4533,-4.4744,-4.4673,-4.4685,-4.469,-4.4749,-4.4773,-4.4795,-4.4511,-4.4509,-4.4508,0,0,-4.4341,-4.4355,-4.4437,-4.4454,-4.4479,-4.4468,-4.4488,-4.4501,-4.4501,-4.4586,-4.4535,-4.4585,-4.467,-4.4688,-4.4709,-4.4876,-4.4835,-4.4892,-4.4989,-4.5051,-4.5071,-4.5089,-4.5149,-4.5171,-4.4905,-4.4905,-4.4905,0,-4.4428,-4.4515,-4.4484,-4.4554,-4.458,-4.4519,-4.4602,-4.462,-4.4657,-4.4676,-4.4633,-4.4738,-4.4749,-4.4857,-4.4898,-4.4916,-4.4937,-4.489,-4.5071,-4.5088,-4.5104,-4.5162,-4.5184,-4.4912,-4.4911,-4.491,-4.491,0,-4.462,-4.4681,-4.4744,-4.4783,-4.4816,-4.4892,-4.4872,-4.4909,-4.4883,-4.4877,-4.4964,-4.4975,-4.5021,-4.5044,-4.502,-4.5149,-4.5125,-4.5077,-4.4999,-4.5136,-4.5189,-4.5211,-4.4921,-4.4919,-4.4917,-4.4915,0,0,-4.4846,-4.4866,-4.489,-4.4907,-4.4929,-4.4975,-4.5048,-4.5094,-4.5126,-4.5153,-4.5213,-4.5286,-4.5241,-4.5265,-4.5241,-4.5295,-4.5428,-4.524,-4.524,-4.5276,-4.5572,-4.5609,-4.5635,-4.54,-4.5404,-4.5408,-4.5571,0,-4.5007,-4.5134,-4.5108,-4.5232,-4.5288,-4.5231,-4.5294,-4.5314,-4.531,-4.5356,-4.535,-4.5403,-4.534,-4.5354,-4.5405,-4.5402,-4.5487,-4.5389,-4.5456,-4.5459,-4.5454,-4.5663,-4.5703,-4.5856,-4.5591,-4.5595,-4.5597,0,-4.5212,-4.5248,-4.5378,-4.5391,-4.5414,-4.5471,-4.5511,-4.5556,-4.5577,-4.557,-4.5596,-4.5562,-4.5633,-4.5554,-4.5652,-4.5586,-4.5611,-4.5614,-4.5619,-4.5625,-4.5537,-4.5676,-4.5904,-4.5928,-4.5629,-4.5627,-4.5625,0,-4.5366,-4.5446,-4.5534,-4.555,-4.5568,-4.5609,-4.5618,-4.5635,-4.5664,-4.5698,-4.5716,-4.5758,-4.5781,-4.5814,-4.5792,-4.5736,-4.5893,-4.5812,-4.589,-4.5891,-4.5927,-4.5925,-4.6164,-4.5941,-4.5941,-4.5941,-4.594,0,-4.5549,-4.5631,-4.5604,-4.5658,-4.5748,-4.5717,-4.5806,-4.5808,-4.5823,-4.5876,-4.5829,-4.5879,-4.5846,-4.5894,-4.5877,-4.5961,-4.5972,-4.5968,-4.5963,-4.5973,-4.5974,-4.599,-4.598,-4.5947,-4.5945,-4.5944,-4.5943,0,-4.5736,-4.5721,-4.5814,-4.5822,-4.5826,-4.5892,-4.5899,-4.5949,-4.5941,-4.6009,-4.6023,-4.6011,-4.6064,-4.6045,-4.6102,-4.6091,-4.6198,-4.6178,-4.6192,-4.6187,-4.6266,-4.626,-4.6525,-4.6558,-4.6314,-4.6316,-4.6318,0,-4.5855,-4.5917,-4.5932,-4.5965,-4.5978,-4.6031,-4.606,-4.6031,-4.6063,-4.6092,-4.6139,-4.6188,-4.6227,-4.6315,-4.6311,-4.6354,-4.6336,-4.6426,-4.6342,-4.6351,-4.6339,-4.6336,-4.6342,-4.6443,-4.6446,-4.6448,-4.645,0,-4.6068,-4.6057,-4.6102,-4.6145,-4.6182,-4.6213,-4.624,-4.627,-4.6242,-4.6281,-4.6336,-4.6366,-4.6424,-4.6474,-4.6513,-4.6521,-4.6482,-4.6476,-4.6497,-4.6509,-4.6515,-4.6514,-4.6239,-4.6471,-4.6469,-4.6467,-4.6466,-4.6465,-4.6225,-4.6278,-4.6297,-4.6348,-4.6366,-4.6393,-4.6441,-4.6438,-4.6484,-4.653,-4.651,-4.6573,-4.6592,-4.664,-4.6653,-4.6702,-4.6667,-4.6697,-4.6704,-4.6713,-4.6723,-4.6506,-4.6709,-4.6708,-4.6708,-4.6707,-4.6707,0,-4.6437,-4.6446,-4.6494,-4.6534,-4.6574,-4.6533,-4.6561,-4.6598,-4.6655,-4.6675,-4.6714,-4.6777,-4.6825,-4.6824,-4.6869,-4.6908,-4.6891,-4.6921,-4.6918,-4.6921,-4.6751,-4.673,-4.6934,-4.6934,-4.6934,-4.6934,-4.6934,-4.6934,-4.6552,-4.6639,-4.663,-4.6725,-4.6733,-4.6796,-4.6815,-4.6839,-4.6856,-4.6929,-4.6969,-4.6968,-4.698,-4.7025,-4.7067,-4.7065,-4.7084,-4.7121,-4.7113,-4.6955,-4.6933,-4.6911,-4.6891,-4.7125,-4.7126,-4.7278,-4.728,-4.7281]},{"header":{"parameterUnit":"m.s-1","parameterCategory":1,"la1":30.2991,"la2":30.254,"lo1":-89.0895,"lo2":-89.0444,"dy":0.0017,"dx":0.0017,"nx":28,"ny":28,"refTime":"2023-11-12T03:00:00:Z","depth":0,"parameterNumber":3,"parameterNumberName":"V-component_of_WINDS"},"data":[0,0,0,0,0,0,0,0,0,0,0,0,0,0,0,0,0,0,0,0,0,0,0,0,0,0,0,0,0,0,0,0,0,0,0,0,0,0,0,0,0,0,0,0,0,0,0,0,0,0,0,0,0,0,0,0,0,0,-4.2639,-4.2639,0,-4.2678,-4.2678,-4.2679,-4.2644,-4.2643,-4.2641,-4.264,-4.2676,-4.2678,-4.268,0,0,0,0,0,0,0,0,0,0,0,0,0,-4.253,-4.2533,-4.2639,-4.2639,-4.264,-4.2678,-4.2678,-4.2679,-4.2644,-4.2643,-4.2641,-4.2639,-4.2675,-4.2678,-4.268,0,0,0,0,0,0,0,0,0,0,0,0,0,-4.2574,-4.2533,-4.2639,-4.2627,-4.2627,-4.2678,-4.2678,-4.2679,-4.2645,-4.2643,-4.264,-4.2639,-4.2674,-4.2678,-4.2681,-4.2744,0,0,-4.2691,-4.2693,0,0,0,0,0,0,0,0,-4.2572,-4.2578,-4.2628,-4.2628,-4.2627,-4.2654,-4.2653,-4.27,-4.2645,-4.2638,-4.264,-4.2638,-4.267,-4.2674,-4.2685,-4.2745,-4.2747,-4.2692,-4.2694,-4.2695,-4.2696,0,0,0,0,0,0,0,-4.2569,-4.2576,-4.2654,-4.2629,-4.2629,-4.2619,-4.2623,-4.2662,-4.2665,-4.2638,-4.2636,-4.2641,-4.2669,-4.2682,-4.2686,-4.2748,-4.2691,-4.2694,-4.2697,-4.2698,-4.2861,-4.2863,0,0,0,0,0,0,-4.2567,-4.2574,-4.2653,-4.2655,-4.2594,-4.2622,-4.2627,-4.2648,-4.2665,-4.2665,-4.2643,-4.2639,-4.2677,-4.2682,-4.2687,-4.2762,-4.2695,-4.2698,-4.27,-4.2858,-4.2861,-4.2864,0,0,0,0,0,0,-4.2565,-4.2575,-4.2651,-4.2614,-4.2623,-4.2627,-4.265,-4.2649,-4.2662,-4.2668,-4.2668,-4.2656,-4.2676,-4.2682,-4.273,-4.2762,-4.27,-4.2703,-4.2856,-4.2859,-4.2862,-4.2912,0,0,0,0,0,0,-4.2562,-4.2574,-4.2599,-4.2615,-4.2625,-4.2695,-4.2652,-4.2652,-4.2669,-4.2665,-4.268,-4.2681,-4.2675,-4.2725,-4.2734,-4.2766,-4.2705,-4.2853,-4.2857,-4.2861,-4.2907,-4.2916,-4.2924,0,0,0,0,0,-4.2559,-4.2611,-4.2601,-4.261,-4.2657,-4.2697,-4.2703,-4.2696,-4.2672,-4.2696,-4.27,-4.268,-4.2758,-4.273,-4.2739,-4.2773,-4.2851,-4.2856,-4.2861,-4.2903,-4.2915,-4.2924,0,0,0,0,0,0,-4.2597,-4.2612,-4.2601,-4.2661,-4.2678,-4.2691,-4.2722,-4.2708,-4.2732,-4.2726,-4.2716,-4.272,-4.277,-4.2776,-4.2746,-4.2835,-4.28,-4.2807,-4.2829,-4.284,-4.2848,-4.2846,-4.2708,0,0,0,0,0,-4.2613,-4.2646,-4.2657,-4.2707,-4.2717,-4.2718,-4.2735,-4.2729,-4.2746,-4.2752,-4.2759,-4.2776,-4.2803,-4.2822,-4.2848,-4.2908,-4.291,-4.2936,-4.2944,-4.2951,-4.2957,-4.2989,-4.3,-4.2881,-4.288,-4.288,0,0,-4.2645,-4.2657,-4.2678,-4.2716,-4.2728,-4.2761,-4.2724,-4.2761,-4.2785,-4.2757,-4.2803,-4.2809,-4.2826,-4.2881,-4.2905,-4.2887,-4.2991,-4.2958,-4.2963,-4.2966,-4.2996,-4.3007,-4.3017,-4.2884,-4.2883,-4.2883,0,0,-4.272,-4.2733,-4.2777,-4.2791,-4.2811,-4.2812,-4.2822,-4.2838,-4.2841,-4.2887,-4.2867,-4.2895,-4.2943,-4.2957,-4.2969,-4.305,-4.3033,-4.3059,-4.3103,-4.3134,-4.3144,-4.3152,-4.3181,-4.3191,-4.3065,-4.3065,-4.3065,0,-4.2757,-4.2808,-4.2801,-4.284,-4.2856,-4.2834,-4.2878,-4.2891,-4.2918,-4.293,-4.291,-4.2971,-4.298,-4.3037,-4.3057,-4.3068,-4.3079,-4.3057,-4.3143,-4.3152,-4.3159,-4.3186,-4.3197,-4.3068,-4.3068,-4.3067,-4.3067,0,-4.2852,-4.2887,-4.292,-4.2949,-4.2969,-4.3009,-4.3008,-4.3029,-4.302,-4.3023,-4.3069,-4.3081,-4.3109,-4.3122,-4.3113,-4.3177,-4.3166,-4.3145,-4.311,-4.3174,-4.3199,-4.3209,-4.3072,-4.3071,-4.307,-4.307,0,0,-4.2952,-4.2978,-4.299,-4.3002,-4.3023,-4.3049,-4.3089,-4.3117,-4.3135,-4.3155,-4.3187,-4.3228,-4.3209,-4.3224,-4.3217,-4.3244,-4.3307,-4.322,-4.322,-4.3236,-4.3378,-4.3393,-4.3406,-4.3296,-4.3298,-4.33,-4.3376,0,-4.3029,-4.3099,-4.3094,-4.316,-4.3192,-4.3172,-4.3206,-4.3221,-4.3224,-4.3251,-4.3253,-4.3283,-4.3256,-4.3265,-4.3291,-4.3294,-4.3336,-4.3288,-4.3325,-4.3326,-4.3321,-4.3419,-4.3435,-4.3507,-4.3386,-4.3388,-4.3389,0,-4.3127,-4.3152,-4.3221,-4.3237,-4.325,-4.3281,-4.3307,-4.3333,-4.335,-4.335,-4.3367,-4.3355,-4.3394,-4.3358,-4.341,-4.3378,-4.3392,-4.3396,-4.3399,-4.3402,-4.3361,-4.3424,-4.353,-4.3541,-4.3405,-4.3403,-4.3402,0,-4.3193,-4.3243,-4.3291,-4.3303,-4.3323,-4.3345,-4.3354,-4.3369,-4.3387,-4.3409,-4.342,-4.3446,-4.346,-4.3479,-4.3474,-4.3449,-4.3527,-4.3491,-4.3528,-4.3528,-4.3545,-4.3544,-4.3655,-4.3555,-4.3555,-4.3555,-4.3554,0,-4.3279,-4.3322,-4.3322,-4.3351,-4.3398,-4.3392,-4.3438,-4.3445,-4.3458,-4.3488,-4.3471,-4.3498,-4.349,-4.3517,-4.3513,-4.3557,-4.3563,-4.3564,-4.3562,-4.3565,-4.3565,-4.3574,-4.3569,-4.3557,-4.3557,-4.3556,-4.3556,0,-4.3361,-4.3363,-4.3414,-4.3429,-4.3434,-4.3468,-4.348,-4.3507,-4.3509,-4.3546,-4.3554,-4.3557,-4.3587,-4.3585,-4.3619,-4.3616,-4.367,-4.3662,-4.3665,-4.3663,-4.37,-4.3696,-4.382,-4.3836,-4.3726,-4.3727,-4.3728,0,-4.3416,-4.3449,-4.3468,-4.3487,-4.3498,-4.3529,-4.3547,-4.3542,-4.3561,-4.3583,-4.3608,-4.3637,-4.366,-4.371,-4.3714,-4.374,-4.3732,-4.3774,-4.3736,-4.3738,-4.3733,-4.3731,-4.3734,-4.3781,-4.3783,-4.3784,-4.3785,0,-4.3512,-4.3511,-4.3539,-4.3568,-4.359,-4.3612,-4.3631,-4.3647,-4.3644,-4.3666,-4.3698,-4.3717,-4.3752,-4.3781,-4.3806,-4.3813,-4.3798,-4.3797,-4.3806,-4.381,-4.381,-4.381,-4.3685,-4.3794,-4.3793,-4.3792,-4.3792,-4.3791,-4.3582,-4.361,-4.3629,-4.366,-4.3674,-4.3693,-4.372,-4.3725,-4.3752,-4.3782,-4.3776,-4.3812,-4.3828,-4.3859,-4.387,-4.3897,-4.3881,-4.3896,-4.3899,-4.3903,-4.3907,-4.3806,-4.3901,-4.3901,-4.39,-4.39,-4.39,0,-4.3677,-4.3688,-4.3718,-4.3746,-4.3771,-4.3756,-4.3777,-4.3798,-4.383,-4.3847,-4.387,-4.3907,-4.3935,-4.3941,-4.3968,-4.3988,-4.3982,-4.3996,-4.3994,-4.3996,-4.3919,-4.3908,-4.4,-4.4,-4.4,-4.4,-4.4,-4.4,-4.373,-4.3777,-4.3779,-4.3833,-4.3843,-4.3879,-4.3892,-4.3909,-4.3922,-4.3964,-4.3988,-4.3993,-4.4005,-4.4032,-4.4057,-4.4058,-4.4069,-4.4085,-4.4083,-4.4011,-4.4001,-4.3992,-4.3981,-4.4087,-4.4087,-4.4157,-4.4158,-4.4158]}]]